Location: Atlantic Beach
(40.5890°N, 73.7290°W)
Time: 07:52:36
(UTC+00:00)

Envisat - Pass Details

Date: 27 January 2021
Orbit: 764 x 766 km, 98.1° (Epoch: 24 February)

Event Time Altitude Azimuth Distance (km) Brightness Sun altitude
Rises 10:01:37 0° 21° (NNE) 3,239 6.5 -24.2°
Reaches altitude 10° 10:04:07 10° 30° (NNE) 2,308 5.8 -23.7°
Maximum altitude 10:08:47 36° 97° (E) 1,200 4.6 -22.8°
Drops below altitude 10° 10:13:25 10° 163° (SSE) 2,292 5.7 -22.0°
Sets 10:15:53 0° 172° (S) 3,214 6.4 -21.5°
